Location: Hopewell Observatory
(38.8698°N, 77.6988°W)
Time: 12:21:18
(UTC-04:00)

SPOT 5 - Pass Details

Date: 26 May 2018
Orbit: 623 x 816 km, 98.3° (Epoch: 18 September)

Event Time Altitude Azimuth Distance (km) Brightness Sun altitude
Exits shadow 22:37:37 50° 148° (SSE) 819 2.7 -20.3°
Maximum altitude 22:38:42 77° 76° (ENE) 672 2.6 -20.4°
Drops below altitude 10° 22:43:16 10° 350° (N) 2,110 6.2 -21.0°
Sets 22:45:34 0° 349° (N) 3,058 7.2 -21.2°
